Location: ???? ???? ?????
(31.2680°N, 31.7283°E)
Time: 04:33:08
(UTC+00:00)

Resurs 01 Rocket - Pass Details

Date: 13 July 2020
Orbit: 635 x 644 km, 98.0° (Epoch: 11 August)

Event Time Altitude Azimuth Distance (km) Brightness Sun altitude
Exits shadow 17:23:26 - 108° (ESE) 2,358 3.9 -5.4°
Reaches altitude 10° 17:24:59 10° 92° (E) 2,020 3.7 -5.7°
Maximum altitude 17:26:47 12° 67° (ENE) 1,867 3.7 -6.0°
Drops below altitude 10° 17:28:34 10° 43° (NE) 2,023 4.1 -6.4°
Sets 17:32:01 0° 14° (NNE) 2,935 5.3 -7.0°
